TimeCST,TemperatureF,Dew PointF,Humidity,Sea Level PressureIn,VisibilityMPH,Wind Direction,Wind SpeedMPH,Gust SpeedMPH,PrecipitationIn,Events,Conditions,WindDirDegrees,DateUTC
12:15 AM,59.0,32.0,36,29.69,10.0,SSW,11.5,-,N/A,,Clear,200,2013-01-29 06:15:00
12:35 AM,59.0,32.0,36,29.69,10.0,SSW,13.8,-,N/A,,Clear,210,2013-01-29 06:35:00
12:55 AM,59.0,32.0,36,29.69,10.0,SW,12.7,-,N/A,,Clear,220,2013-01-29 06:55:00
1:15 AM,57.2,32.0,38,29.68,10.0,SW,8.1,-,N/A,,Clear,220,2013-01-29 07:15:00
1:35 AM,55.4,32.0,41,29.68,10.0,SSW,9.2,-,N/A,,Clear,210,2013-01-29 07:35:00
1:55 AM,55.4,32.0,41,29.69,10.0,South,11.5,-,N/A,,Mostly Cloudy,190,2013-01-29 07:55:00
2:15 AM,57.2,32.0,38,29.67,10.0,SSW,9.2,-,N/A,,Overcast,210,2013-01-29 08:15:00
2:35 AM,55.4,32.0,41,29.67,10.0,SSW,6.9,-,N/A,,Mostly Cloudy,210,2013-01-29 08:35:00
2:55 AM,55.4,32.0,41,29.68,10.0,SSW,8.1,-,N/A,,Scattered Clouds,200,2013-01-29 08:55:00
3:15 AM,55.4,32.0,41,29.67,10.0,SW,9.2,-,N/A,,Mostly Cloudy,230,2013-01-29 09:15:00
3:35 AM,55.4,32.0,41,29.69,10.0,South,10.4,-,N/A,,Overcast,190,2013-01-29 09:35:00
3:55 AM,57.2,32.0,38,29.67,10.0,SSW,9.2,-,N/A,,Overcast,210,2013-01-29 09:55:00
4:15 AM,59.0,30.2,34,29.68,10.0,South,13.8,-,N/A,,Overcast,190,2013-01-29 10:15:00
4:35 AM,59.0,30.2,34,29.67,10.0,SW,8.1,-,N/A,,Overcast,220,2013-01-29 10:35:00
4:55 AM,53.6,32.0,44,29.70,10.0,West,9.2,-,N/A,,Overcast,280,2013-01-29 10:55:00
5:15 AM,55.4,32.0,41,29.68,10.0,West,5.8,-,N/A,,Overcast,270,2013-01-29 11:15:00
5:35 AM,53.6,32.0,44,29.68,10.0,West,4.6,-,N/A,,Overcast,280,2013-01-29 11:35:00
5:55 AM,48.2,33.8,58,29.68,10.0,North,6.9,-,N/A,,Overcast,350,2013-01-29 11:55:00
6:15 AM,44.6,35.6,71,29.67,10.0,North,8.1,-,N/A,,Overcast,350,2013-01-29 12:15:00
6:35 AM,42.8,35.6,76,29.66,10.0,North,5.8,-,N/A,,Overcast,10,2013-01-29 12:35:00
6:55 AM,42.8,35.6,76,29.66,10.0,NNW,6.9,-,N/A,,Overcast,340,2013-01-29 12:55:00
7:15 AM,41.0,35.6,81,29.65,10.0,NNW,3.5,-,N/A,,Overcast,340,2013-01-29 13:15:00
7:35 AM,41.0,35.6,81,29.64,10.0,Calm,Calm,-,N/A,,Overcast,0,2013-01-29 13:35:00
7:55 AM,41.0,35.6,81,29.63,10.0,WNW,5.8,-,N/A,,Mostly Cloudy,300,2013-01-29 13:55:00
8:15 AM,39.2,35.6,87,29.63,10.0,WNW,3.5,-,N/A,,Scattered Clouds,300,2013-01-29 14:15:00
8:35 AM,41.0,35.6,81,29.65,10.0,NW,6.9,-,N/A,,Scattered Clouds,310,2013-01-29 14:35:00
8:55 AM,41.0,35.6,81,29.66,10.0,NW,6.9,-,N/A,,Mostly Cloudy,320,2013-01-29 14:55:00
9:15 AM,41.0,37.4,87,29.66,10.0,NW,12.7,-,N/A,,Overcast,320,2013-01-29 15:15:00
9:35 AM,42.8,37.4,81,29.65,10.0,NNW,10.4,-,N/A,,Overcast,330,2013-01-29 15:35:00
9:55 AM,42.8,35.6,76,29.66,10.0,NNW,11.5,-,N/A,,Overcast,340,2013-01-29 15:55:00
10:15 AM,42.8,37.4,81,29.65,10.0,NNW,10.4,-,N/A,,Overcast,330,2013-01-29 16:15:00
10:35 AM,44.6,35.6,71,29.65,10.0,NNW,10.4,-,N/A,,Overcast,340,2013-01-29 16:35:00
10:55 AM,44.6,35.6,71,29.63,10.0,NW,9.2,-,N/A,,Overcast,320,2013-01-29 16:55:00
11:15 AM,44.6,35.6,71,29.64,10.0,NNW,9.2,-,N/A,,Overcast,340,2013-01-29 17:15:00
11:35 AM,46.4,35.6,66,29.64,10.0,NW,11.5,-,N/A,,Mostly Cloudy,320,2013-01-29 17:35:00
11:55 AM,46.4,35.6,66,29.60,10.0,NNW,10.4,-,N/A,,Scattered Clouds,330,2013-01-29 17:55:00
12:15 PM,44.6,35.6,71,29.60,10.0,North,9.2,-,N/A,,Mostly Cloudy,360,2013-01-29 18:15:00
12:35 PM,44.6,35.6,71,29.62,10.0,NNW,8.1,-,N/A,,Overcast,330,2013-01-29 18:35:00
12:55 PM,44.6,35.6,71,29.61,10.0,NNW,9.2,-,N/A,,Overcast,330,2013-01-29 18:55:00
1:15 PM,44.6,35.6,71,29.62,10.0,WNW,10.4,-,N/A,,Overcast,290,2013-01-29 19:15:00
1:35 PM,44.6,35.6,71,29.58,10.0,NNW,10.4,-,N/A,Rain,Light Rain,340,2013-01-29 19:35:00
1:55 PM,44.6,35.6,71,29.59,10.0,NW,10.4,-,N/A,,Mostly Cloudy,310,2013-01-29 19:55:00
2:15 PM,44.6,33.8,66,29.56,10.0,NNW,13.8,18.4,N/A,,Overcast,340,2013-01-29 20:15:00
2:35 PM,42.8,33.8,70,29.58,10.0,NNW,11.5,-,N/A,,Overcast,330,2013-01-29 20:35:00
2:55 PM,42.8,32.0,66,29.59,10.0,NNW,8.1,-,N/A,,Overcast,330,2013-01-29 20:55:00
3:15 PM,42.8,32.0,66,29.60,10.0,NW,6.9,-,N/A,,Overcast,320,2013-01-29 21:15:00
3:35 PM,42.8,32.0,66,29.60,10.0,North,9.2,-,N/A,,Overcast,350,2013-01-29 21:35:00
3:55 PM,42.8,32.0,66,29.60,10.0,North,8.1,-,N/A,,Overcast,350,2013-01-29 21:55:00
4:15 PM,42.8,32.0,66,29.58,10.0,NNW,11.5,-,N/A,,Overcast,340,2013-01-29 22:15:00
4:35 PM,42.8,32.0,66,29.60,10.0,NNW,11.5,-,N/A,,Overcast,330,2013-01-29 22:35:00
4:55 PM,41.0,32.0,70,29.60,10.0,NNW,11.5,-,N/A,,Overcast,330,2013-01-29 22:55:00
5:15 PM,41.0,32.0,70,29.62,10.0,NNW,13.8,-,N/A,,Overcast,330,2013-01-29 23:15:00
5:35 PM,41.0,32.0,70,29.61,10.0,NNW,13.8,-,N/A,,Overcast,340,2013-01-29 23:35:00
5:55 PM,41.0,32.0,70,29.61,10.0,NNW,15.0,19.6,N/A,,Overcast,340,2013-01-29 23:55:00
6:15 PM,39.2,32.0,75,29.62,10.0,NNW,12.7,-,N/A,,Overcast,340,2013-01-30 00:15:00
6:35 PM,39.2,32.0,75,29.63,10.0,NNW,16.1,-,N/A,,Overcast,340,2013-01-30 00:35:00
6:55 PM,39.2,30.2,70,29.65,10.0,NNW,16.1,20.7,N/A,,Overcast,340,2013-01-30 00:55:00
7:15 PM,37.4,30.2,75,29.66,10.0,NNW,15.0,19.6,N/A,,Overcast,340,2013-01-30 01:15:00
7:35 PM,37.4,32.0,81,29.67,10.0,NW,16.1,24.2,N/A,,Overcast,320,2013-01-30 01:35:00
7:55 PM,35.6,32.0,87,29.67,10.0,NNW,18.4,26.5,N/A,,Overcast,340,2013-01-30 01:55:00
8:15 PM,35.6,32.0,87,29.68,10.0,NNW,17.3,24.2,N/A,,Overcast,340,2013-01-30 02:15:00
8:35 PM,35.6,32.0,87,29.69,10.0,NNW,17.3,23.0,N/A,,Overcast,340,2013-01-30 02:35:00
8:55 PM,35.6,32.0,87,29.70,10.0,NNW,16.1,27.6,N/A,,Overcast,330,2013-01-30 02:55:00
9:15 PM,35.6,32.0,87,29.69,10.0,NNW,20.7,26.5,N/A,,Overcast,330,2013-01-30 03:15:00
9:35 PM,35.6,32.0,87,29.71,10.0,NNW,20.7,26.5,N/A,,Overcast,340,2013-01-30 03:35:00
9:55 PM,35.6,30.2,81,29.72,10.0,NNW,17.3,23.0,N/A,,Overcast,340,2013-01-30 03:55:00
10:15 PM,33.8,30.2,87,29.73,10.0,NNW,15.0,25.3,N/A,,Overcast,340,2013-01-30 04:15:00
10:35 PM,33.8,30.2,87,29.73,10.0,NNW,17.3,23.0,N/A,,Overcast,340,2013-01-30 04:35:00
10:55 PM,33.8,30.2,87,29.74,10.0,NNW,15.0,-,N/A,,Overcast,330,2013-01-30 04:55:00
11:15 PM,33.8,30.2,87,29.75,10.0,NNW,15.0,18.4,N/A,,Overcast,330,2013-01-30 05:15:00